COSMOS 2251 DEB, 47053

Orbit data source: Space-Track

COSMOS 2251 DEB, 47053 is space debris in LEO originally from a launch on Wed, 16 Jun 1993 UTC launched from the Plesetsk Missile And Space Complex (PKMTR). The debris from Iridium 33, an American commercial communications satellite, has been tracked extensively since its accidental collision with the defunct Russian satellite Cosmos 2251 in 2009. This event, occurring at high speed in low Earth orbit (LEO), generated thousands of pieces of space debris, significantly increasing the risk of further collisions. The Iridium 33 debris cloud has impacted space traffic management and orbital debris mitigation strategies, making it a subject of ongoing study in space situational awareness.

Loading next visibility...
Identifier
47053, 1993-036BXH
Orbit
LEO
Country
Flag of CISCIS
Related business
Manufacturer
Unknown
Mission
Spacecraft
Bus & Motor
Unknown
Mass
Unknown
Launch date (UTC)
1993-06-16 (33 years ago)
Launch vehicle
Unknown
Launch site
Plesetsk Missile And Space Complex (PKMTR)
Object type
Payload
Rocket body
Debris
Shape & HBR
Unknown shape, 0.1 m
Radar Cross Section
Small (<0.1 m²)

Expand to show TLE details & history
Last TLE update: 4 days ago

TLE from 4 days ago
0 COSMOS 2251 DEB
1 47053U 93036BXH 26203.40987295  .00000406  00000-0  35504-3 0  9997
2 47053  74.0560 255.0596 0378935  19.2730 356.8856 13.60176011319024
Epoch: 2026-07-22T09:50Z
TLE epoch observation values (Epoch: 2026-07-22T09:50:13.022Z)
Latitude
15.26852°
Longitude
171.78844°
Altitude
756.375 km
Speed
7.618 km/s
True Right ascension
17h 18m 01s
True Declination
15° 10' 53"
Sunlit
Object was in full shadow at epoch
Visualization orbit readout
Latitude
Unknown
Longitude
Unknown
Altitude
Unknown
Speed
Unknown
Apparent Right ascension
Unknown
Apparent Declination
Unknown
Sunlit
N/A
Visualization observer readout
Local Sidereal Time
00:19:21
Azimuth
Unknown
Elevation
Unknown
Doppler factor
Unknown
Orbital elements
Apogee altitude
1,313.579 km
Perigee altitude
751.93 km
Semi-major axis
7,410.892 km
Eccentricity
0.03789
Inclination
74.056°
RAAN
255.0596°
Arg. of periapsis
19.273°
True anomaly
356.638°
Mean anomaly
356.8856°
Eccentric anomaly
356.763°
Mean motion
3.40202 °/min
Orbital period
105.82 mins
BSTAR
0.00035504
Loading maneuver chart data...
Computing Atmospheric mass density...

Documentation

Showing up to 5 results
|